• In United Kingdom
  • List of Countries
  • For 7 days
  • Water Temperature
  • Satellite Maps
  • Weather Map
  • Weather Widgets
  • user-avatar
    Login

    Hourly Weather Nampula

    Today, 17 August, Thursday

    Time Temperature Precipitation Wind Pressure Humidity
    00:00 +22°C° 0.2 mm 1 mps 608 mmHg 66%
    01:00 +22°C° 0.4 mm 1 mps 608 mmHg 67%
    02:00 +21°C° 0.4 mm 1 mps 607 mmHg 69%
    03:00 +19°C° 0.4 mm 0 mps 607 mmHg 71%
    04:00 +19°C° 0.6 mm 0 mps 607 mmHg 71%
    05:00 +19°C° 0.6 mm 0 mps 607 mmHg 71%
    06:00 +19°C° 0.6 mm 0 mps 607 mmHg 71%
    07:00 +22°C° 0.2 mm 1 mps 608 mmHg 66%
    08:00 +23°C° 0.2 mm 1 mps 608 mmHg 62%
    09:00 +24°C° 0.2 mm 1 mps 609 mmHg 57%
    10:00 +25°C° 0.4 mm 1 mps 609 mmHg 52%
    11:00 +26°C° 0.4 mm 2 mps 609 mmHg 48%
    12:00 +27°C° 0.4 mm 2 mps 610 mmHg 44%
    13:00 +27°C° 0.4 mm 2 mps 609 mmHg 44%
    14:00 +27°C° 0.4 mm 3 mps 609 mmHg 44%
    15:00 +27°C° 0.4 mm 3 mps 609 mmHg 44%
    16:00 +26°C° 0.5 mm 3 mps 609 mmHg 47%
    17:00 +26°C° 0.5 mm 2 mps 608 mmHg 49%
    18:00 +25°C° 0.5 mm 2 mps 608 mmHg 52%
    19:00 +25°C° 0.3 mm 2 mps 608 mmHg 55%
    20:00 +24°C° 0.3 mm 1 mps 608 mmHg 58%
    21:00 +23°C° 0.3 mm 1 mps 608 mmHg 61%
    22:00 +23°C° 0.1 mm 1 mps 608 mmHg 62%
    23:00 +23°C° 0.1 mm 1 mps 608 mmHg 63%

    Tomorrow, 18 August, Friday

    Time Temperature Precipitation Wind Pressure Humidity
    00:00 +23°C° 0.1 mm 1 mps 608 mmHg 64%
    01:00 +23°C° 0.1 mm 1 mps 608 mmHg 65%
    02:00 +22°C° 0.1 mm 1 mps 608 mmHg 66%
    03:00 +22°C° 0.1 mm 1 mps 607 mmHg 67%
    04:00 +22°C° 0.1 mm 1 mps 608 mmHg 68%
    05:00 +22°C° 0.1 mm 1 mps 608 mmHg 68%
    06:00 +19°C° 0.1 mm 0 mps 608 mmHg 69%
    07:00 +22°C° 0 mm 1 mps 608 mmHg 63%
    08:00 +23°C° 0 mm 1 mps 609 mmHg 57%
    09:00 +24°C° 0 mm 1 mps 610 mmHg 51%
    10:00 +25°C° 0.1 mm 1 mps 610 mmHg 47%
    11:00 +27°C° 0.1 mm 2 mps 610 mmHg 43%
    12:00 +28°C° 0.1 mm 2 mps 611 mmHg 40%
    13:00 +28°C° 0.1 mm 3 mps 610 mmHg 38%
    14:00 +28°C° 0.1 mm 3 mps 610 mmHg 37%
    15:00 +29°C° 0.1 mm 3 mps 609 mmHg 35%
    16:00 +28°C° 0.1 mm 3 mps 609 mmHg 37%
    17:00 +28°C° 0.1 mm 3 mps 609 mmHg 38%
    18:00 +27°C° 0.1 mm 3 mps 608 mmHg 40%
    19:00 +26°C° 0.2 mm 2 mps 608 mmHg 43%
    20:00 +26°C° 0.2 mm 2 mps 609 mmHg 46%
    21:00 +25°C° 0.2 mm 1 mps 609 mmHg 49%
    22:00 +25°C° 0.2 mm 1 mps 609 mmHg 51%
    23:00 +24°C° 0.2 mm 1 mps 609 mmHg 53%

    Day after tomorrow, 19 August, Saturday

    Time Temperature Precipitation Wind Pressure Humidity
    00:00 +24°C° 0.2 mm 1 mps 609 mmHg 55%
    01:00 +23°C° 0.3 mm 1 mps 608 mmHg 57%
    02:00 +23°C° 0.3 mm 1 mps 608 mmHg 60%
    03:00 +23°C° 0.3 mm 1 mps 607 mmHg 62%
    04:00 +22°C° 0.5 mm 1 mps 608 mmHg 63%
    05:00 +22°C° 0.5 mm 1 mps 608 mmHg 64%
    06:00 +22°C° 0.5 mm 1 mps 608 mmHg 66%
    07:00 +23°C° 0.3 mm 1 mps 608 mmHg 59%
    08:00 +24°C° 0.3 mm 1 mps 609 mmHg 53%
    09:00 +23°C° 0.3 mm 0 mps 609 mmHg 47%
    10:00 +26°C° 0.2 mm 1 mps 610 mmHg 43%
    11:00 +27°C° 0.2 mm 2 mps 610 mmHg 40%
    12:00 +28°C° 0.2 mm 2 mps 611 mmHg 36%
    13:00 +29°C° 0.2 mm 3 mps 610 mmHg 35%
    14:00 +29°C° 0.2 mm 3 mps 610 mmHg 34%
    15:00 +30°C° 0.2 mm 4 mps 609 mmHg 33%
    16:00 +29°C° 0.2 mm 4 mps 609 mmHg 34%
    17:00 +28°C° 0.2 mm 4 mps 609 mmHg 36%
    18:00 +28°C° 0.2 mm 4 mps 609 mmHg 38%
    19:00 +27°C° 0.3 mm 3 mps 609 mmHg 42%
    20:00 +26°C° 0.3 mm 2 mps 609 mmHg 47%
    21:00 +25°C° 0.3 mm 1 mps 609 mmHg 52%
    22:00 +25°C° 0.2 mm 1 mps 609 mmHg 54%
    23:00 +24°C° 0.2 mm 1 mps 608 mmHg 56%

    20 August, Sunday

    Time Temperature Precipitation Wind Pressure Humidity
    00:00 +22°C° 0.2 mm 0 mps 608 mmHg 59%
    01:00 +24°C° 0.1 mm 1 mps 608 mmHg 60%
    02:00 +23°C° 0.1 mm 1 mps 607 mmHg 61%
    03:00 +23°C° 0.1 mm 2 mps 607 mmHg 62%
    04:00 +23°C° 0.2 mm 1 mps 607 mmHg 63%
    05:00 +23°C° 0.2 mm 1 mps 607 mmHg 64%
    06:00 +22°C° 0.2 mm 1 mps 607 mmHg 65%
    07:00 +23°C° 0.2 mm 1 mps 608 mmHg 60%
    08:00 +24°C° 0.2 mm 1 mps 608 mmHg 55%
    09:00 +25°C° 0.2 mm 1 mps 609 mmHg 49%
    10:00 +26°C° 0.2 mm 2 mps 609 mmHg 46%
    11:00 +27°C° 0.2 mm 2 mps 610 mmHg 42%
    12:00 +28°C° 0.2 mm 3 mps 610 mmHg 38%
    13:00 +28°C° 0 mm 3 mps 610 mmHg 38%
    14:00 +28°C° 0 mm 3 mps 609 mmHg 37%
    15:00 +28°C° 0 mm 3 mps 609 mmHg 37%
    16:00 +28°C° 0.2 mm 3 mps 609 mmHg 39%
    17:00 +27°C° 0.2 mm 2 mps 608 mmHg 40%
    18:00 +27°C° 0.2 mm 2 mps 608 mmHg 42%
    19:00 +26°C° 0.1 mm 2 mps 608 mmHg 47%
    20:00 +25°C° 0.1 mm 2 mps 608 mmHg 53%
    21:00 +24°C° 0.1 mm 1 mps 608 mmHg 58%
    22:00 +24°C° 0.1 mm 2 mps 608 mmHg 60%
    23:00 +23°C° 0.1 mm 2 mps 608 mmHg 63%

    21 August, Monday

    Time Temperature Precipitation Wind Pressure Humidity
    00:00 +23°C° 0.1 mm 2 mps 608 mmHg 65%
    01:00 +21°C° 0.1 mm 2 mps 607 mmHg 67%
    02:00 +21°C° 0.1 mm 2 mps 607 mmHg 68%
    03:00 +21°C° 0.1 mm 2 mps 606 mmHg 69%
    04:00 +20°C° 0 mm 2 mps 607 mmHg 71%
    05:00 +20°C° 0 mm 2 mps 607 mmHg 73%
    06:00 +20°C° 0 mm 2 mps 607 mmHg 75%
    07:00 +21°C° 0 mm 2 mps 608 mmHg 69%
    08:00 +23°C° 0 mm 2 mps 608 mmHg 64%
    09:00 +24°C° 0 mm 2 mps 609 mmHg 59%
    10:00 +25°C° 0.2 mm 3 mps 609 mmHg 54%
    11:00 +26°C° 0.2 mm 3 mps 609 mmHg 49%
    12:00 +27°C° 0.2 mm 3 mps 609 mmHg 43%
    13:00 +27°C° 1 mm 3 mps 609 mmHg 44%
    14:00 +27°C° 1 mm 3 mps 608 mmHg 45%
    15:00 +27°C° 1 mm 3 mps 608 mmHg 46%
    16:00 +27°C° 0.9 mm 3 mps 608 mmHg 47%
    17:00 +26°C° 0.9 mm 3 mps 608 mmHg 49%
    18:00 +26°C° 0.9 mm 2 mps 607 mmHg 50%
    19:00 +25°C° 0.3 mm 2 mps 608 mmHg 54%
    20:00 +24°C° 0.3 mm 2 mps 608 mmHg 58%
    21:00 +23°C° 0.3 mm 2 mps 608 mmHg 62%
    22:00 +23°C° 0 mm 2 mps 608 mmHg 65%
    23:00 +21°C° 0 mm 2 mps 608 mmHg 67%

    22 August, Tuesday

    Time Temperature Precipitation Wind Pressure Humidity
    00:00 +21°C° 0 mm 2 mps 607 mmHg 70%
    01:00 +21°C° 0 mm 2 mps 607 mmHg 71%
    02:00 +20°C° 0 mm 3 mps 606 mmHg 73%
    03:00 +20°C° 0 mm 3 mps 606 mmHg 74%
    04:00 +20°C° 0.2 mm 3 mps 606 mmHg 74%
    05:00 +20°C° 0.2 mm 3 mps 606 mmHg 74%
    06:00 +20°C° 0.2 mm 3 mps 607 mmHg 73%
    07:00 +21°C° 0.3 mm 3 mps 607 mmHg 68%
    08:00 +23°C° 0.3 mm 2 mps 608 mmHg 63%
    09:00 +24°C° 0.3 mm 2 mps 608 mmHg 58%
    10:00 +25°C° 0.5 mm 2 mps 608 mmHg 53%
    11:00 +26°C° 0.5 mm 3 mps 608 mmHg 48%
    12:00 +27°C° 0.5 mm 3 mps 608 mmHg 43%
    13:00 +27°C° 0.5 mm 3 mps 608 mmHg 44%
    14:00 +27°C° 0.5 mm 3 mps 607 mmHg 44%
    15:00 +27°C° 0.5 mm 3 mps 607 mmHg 44%
    16:00 +27°C° 0.6 mm 3 mps 607 mmHg 46%
    17:00 +26°C° 0.6 mm 3 mps 606 mmHg 48%
    18:00 +26°C° 0.6 mm 2 mps 606 mmHg 49%
    19:00 +25°C° 0.3 mm 2 mps 606 mmHg 53%
    20:00 +24°C° 0.3 mm 2 mps 606 mmHg 58%
    21:00 +23°C° 0.3 mm 2 mps 606 mmHg 62%
    22:00 +23°C° 0.1 mm 2 mps 606 mmHg 64%
    23:00 +23°C° 0.1 mm 2 mps 606 mmHg 66%
    Show more